�N����,����,����,����,����,�C��,���x,�~����,�S�V����,�ő�u�ԕ���,,,,,
,,,,,,,,,����,����,����,�N��,,
yyyy/mm/dd,hh:mm:ss,(16),16����,m/s,��,%,mm,KW/�u,(16),16����,m/s,Time,,
2021/12/1,1:00:00,8,��,4.6,10.8,95.3,0,0,7,��쓌,10.1,57,,
2021/12/1,2:00:00,7,��쓌,7,11.1,95.7,0,0,7,��쓌,15.1,46,,
2021/12/1,3:00:00,7,��쓌,5.8,11.2,95,0,0,7,��쓌,11.9,19,,
2021/12/1,4:00:00,8,��,6.9,12.4,89.9,0,0,8,��,14.3,54,,
2021/12/1,5:00:00,8,��,9.2,12.5,94.4,0,0,8,��,16.2,21,,
2021/12/1,6:00:00,8,��,5.2,11.2,97.5,2.5,0,9,��쐼,14.6,2,,
2021/12/1,7:00:00,8,��,6.7,11.2,96.7,3,0,8,��,12.3,42,,
2021/12/1,8:00:00,8,��,7.1,11.3,96,2.5,0.01,7,��쓌,14.1,29,,
2021/12/1,9:00:00,7,��쓌,7.4,11.3,96.2,4,0.02,8,��,13.3,42,,
2021/12/1,10:00:00,8,��,5.9,11.2,97.2,5.5,0.02,8,��,14,1,,
2021/12/1,11:00:00,8,��,6.9,11.4,98.6,6,0.02,7,��쓌,12.7,58,,
2021/12/1,12:00:00,9,��쐼,5.8,12,97.5,13,0.02,10,�쐼,14.2,34,,
2021/12/1,13:00:00,10,�쐼,3,11.5,93.2,0.5,0.03,9,��쐼,9.8,4,,
2021/12/1,14:00:00,11,���쐼,4,11.1,79.8,0,0.01,11,���쐼,7.7,48,,
2021/12/1,15:00:00,11,���쐼,2.7,10.5,72.2,0,0.05,11,���쐼,10.7,38,,
2021/12/1,16:00:00,12,��,3.4,9.1,45.8,0,0.04,13,���k��,14.6,19,,
2021/12/1,17:00:00,11,���쐼,7.5,7.6,50.6,0.5,0,11,���쐼,16.3,53,,
2021/12/1,18:00:00,10,�쐼,7.6,7.1,49.5,0,0,11,���쐼,17.5,21,,
2021/12/1,19:00:00,11,���쐼,6.1,6.5,53,0,0,10,�쐼,19,7,,
2021/12/1,20:00:00,10,�쐼,4.7,5.1,62.4,0,0,10,�쐼,12.3,4,,
2021/12/1,21:00:00,10,�쐼,7.8,5.6,53.3,0,0,10,�쐼,15.7,14,,
2021/12/1,22:00:00,11,���쐼,10,5.5,49.2,0,0,11,���쐼,18.8,41,,
2021/12/1,23:00:00,11,���쐼,11,5,48.5,0,0,11,���쐼,19.8,49,,
2021/12/1,0:00:00,11,���쐼,8.5,3.8,57.9,0,0,11,���쐼,18.2,36,,
2021/12/2,1:00:00,11,���쐼,7.2,3.5,51.8,0,0,10,�쐼,22.6,37,,
2021/12/2,2:00:00,11,���쐼,7.8,3.2,48.6,0,0,10,�쐼,15.3,54,,
2021/12/2,3:00:00,13,���k��,4.7,1.8,61.1,0,0,13,���k��,14.8,43,,
2021/12/2,4:00:00,12,��,6.4,-0.3,90,0,0,12,��,10.3,44,,
2021/12/2,5:00:00,14,�k��,4.3,-0.7,89,0,0,11,���쐼,12,38,,
2021/12/2,6:00:00,12,��,3.5,-1.5,87.8,0,0,11,���쐼,8.8,41,,
2021/12/2,7:00:00,10,�쐼,4.7,-0.5,74.1,0,0.01,12,��,8.9,34,,
2021/12/2,8:00:00,6,�쓌,0.6,0.5,72.2,0,0.08,10,�쐼,9.8,2,,
2021/12/2,9:00:00,12,��,4.1,1.5,51.3,0,0.2,12,��,7.4,34,,
2021/12/2,10:00:00,13,���k��,7.4,2.7,45.4,0,0.36,12,��,12.6,47,,
2021/12/2,11:00:00,11,���쐼,8,1.6,49.4,0,0.3,12,��,13.5,44,,
2021/12/2,12:00:00,11,���쐼,9.3,2.1,46.4,0,0.49,12,��,17.7,47,,
2021/12/2,13:00:00,12,��,7,2.8,36.7,0,0.48,11,���쐼,13.5,0,,
2021/12/2,14:00:00,12,��,6.8,2.8,41.5,0,0.38,12,��,14.6,28,,
2021/12/2,15:00:00,12,��,5.4,2.1,39.8,0,0.23,11,���쐼,13.2,0,,
2021/12/2,16:00:00,12,��,7,1.2,44.7,0,0.06,12,��,12.7,59,,
2021/12/2,17:00:00,12,��,5.5,0.9,45.8,0,0,12,��,12.2,2,,
2021/12/2,18:00:00,13,���k��,3.8,0.6,48.4,0,0,12,��,9.2,0,,
2021/12/2,19:00:00,13,���k��,2.8,-0.6,59.1,0,0,14,�k��,6.1,40,,
2021/12/2,20:00:00,12,��,0.5,-4.8,77.2,0,0,4,��,3.8,9,,
2021/12/2,21:00:00,1,�k�k��,1.3,-4.8,72.3,0,0,4,��,17.5,34,,
2021/12/2,22:00:00,16,�k,0.6,-5.7,82.8,0,0,12,��,4.8,11,,
2021/12/2,23:00:00,16,�k,1,-5.2,89.2,0,0,13,���k��,2.9,15,,
2021/12/2,0:00:00,-5.1,#N/A,91.9,0,0,,,,,,,,
2021/12/3,1:00:00,9,��쐼,3.9,4.3,63.3,0,0,9,��쐼,7.9,53,,
2021/12/3,2:00:00,7,��쓌,5.6,5.1,73,0,0,7,��쓌,10,58,,
2021/12/3,3:00:00,7,��쓌,4.1,5.4,80.2,0,0,7,��쓌,9.6,12,,
2021/12/3,4:00:00,9,��쐼,4.9,7.3,70.5,0,0,9,��쐼,10.9,55,,
2021/12/3,5:00:00,9,��쐼,3.3,7.3,75,0,0,10,�쐼,11.4,16,,
2021/12/3,6:00:00,10,�쐼,2.6,5.2,70.1,0,0,9,��쐼,8.3,24,,
2021/12/3,7:00:00,13,���k��,3.4,0.2,94.1,0,0.01,14,�k��,8.7,5,,
2021/12/3,8:00:00,13,���k��,2.6,0.9,97.3,0,0.05,14,�k��,5.2,11,,
2021/12/3,9:00:00,13,���k��,1.8,4.2,93,0,0.18,12,��,3.5,16,,
2021/12/3,10:00:00,10,�쐼,2.6,8.3,81.1,0,0.31,9,��쐼,4.4,55,,
2021/12/3,11:00:00,10,�쐼,2.1,10.6,73,0,0.41,11,���쐼,5.7,45,,
2021/12/3,12:00:00,8,��,5.3,12.3,63.8,0,0.52,10,�쐼,12.1,32,,
2021/12/3,13:00:00,9,��쐼,3.6,13.1,55.7,0,0.43,9,��쐼,9.4,21,,
2021/12/3,14:00:00,8,��,5.2,8.8,83.8,0.5,0.11,8,��,11.1,34,,
2021/12/3,15:00:00,13,���k��,1.5,8.5,89.9,0,0.03,10,�쐼,7,0,,
2021/12/3,16:00:00,11,���쐼,1.2,8.5,95.8,5,0.01,8,��,8.9,33,,
2021/12/3,17:00:00,7,��쓌,4.2,8,97.5,4.5,0,7,��쓌,7.6,55,,
2021/12/3,18:00:00,8,��,3,7.5,92.8,0.5,0,8,��,6.6,45,,
2021/12/3,19:00:00,8,��,4.5,8.5,89.2,0,0,9,��쐼,8.1,57,,
2021/12/3,20:00:00,8,��,4.2,7.6,92.5,0,0,8,��,8.8,21,,
2021/12/3,21:00:00,10,�쐼,3.8,7.5,90.5,0,0,7,��쓌,8.1,5,,
2021/12/3,22:00:00,1,�k�k��,2.5,4.9,85,0,0,12,��,7.3,9,,
2021/12/3,23:00:00,14,�k��,2.8,3.3,95.8,0,0,14,�k��,4.6,47,,
2021/12/3,0:00:00,13,���k��,2.2,1.4,98.2,0,0,14,�k��,4,0,,
2021/12/4,1:00:00,12,��,2.4,0.9,98.5,0,0,13,���k��,4.5,30,,
2021/12/4,2:00:00,12,��,2.3,-0.2,100,0,0,12,��,4.3,29,,
2021/12/4,3:00:00,13,���k��,2.7,-0.2,99.5,0,0,12,��,5.9,40,,
2021/12/4,4:00:00,12,��,4.3,4,70.7,0,0,12,��,7.3,50,,
2021/12/4,5:00:00,14,�k��,2,1.2,88,0,0,12,��,5.8,1,,
2021/12/4,6:00:00,13,���k��,2.5,0.5,90.1,0,0,14,�k��,4.4,21,,
2021/12/4,7:00:00,13,���k��,2.1,-1.7,93.5,0,0.01,13,���k��,3.5,53,,
2021/12/4,8:00:00,13,���k��,1.4,1.1,90.2,0,0.11,14,�k��,4.4,12,,
2021/12/4,9:00:00,14,�k��,3,4.2,71.8,0,0.3,14,�k��,5.4,51,,
2021/12/4,10:00:00,15,�k�k��,2.3,5.6,65.4,0,0.43,15,�k�k��,4.7,8,,
2021/12/4,11:00:00,2,�k��,0.5,7.6,63.7,0,0.5,14,�k��,3.4,12,,
2021/12/4,12:00:00,12,��,4.7,6,55,0,0.5,10,�쐼,8.9,55,,
2021/12/4,13:00:00,13,���k��,3.2,7.1,52,0,0.48,12,��,9.3,16,,
2021/12/4,14:00:00,13,���k��,2.2,6.8,41.3,0,0.4,11,���쐼,9.7,47,,
2021/12/4,15:00:00,15,�k�k��,3.1,4.5,42.1,0,0.22,14,�k��,6.9,59,,
2021/12/4,16:00:00,15,�k�k��,2.5,2.5,52.9,0,0.04,14,�k��,5.8,0,,
2021/12/4,17:00:00,14,�k��,2.2,1.7,60,0,0,15,�k�k��,4.9,5,,
2021/12/4,18:00:00,14,�k��,1.1,0.3,66.8,0,0,14,�k��,3.6,9,,
2021/12/4,19:00:00,16,�É�,0,-2.3,75.2,0,0,10,�쐼,4.9,45,,
2021/12/4,20:00:00,13,���k��,1.6,-3.9,91,0,0,13,���k��,2.6,57,,
2021/12/4,21:00:00,12,��,1.6,-3,86.9,0,0,12,��,2.8,42,,
2021/12/4,22:00:00,14,�k��,2.7,-1.6,69.9,0,0,15,�k�k��,5.1,50,,
2021/12/4,23:00:00,13,���k��,2.2,-4.2,76.6,0,0,16,�k,5.1,2,,
2021/12/4,0:00:00,13,���k��,1.4,-4.2,70.9,0,0,12,��,3.5,11,,
2021/12/5,1:00:00,12,��,2,-5.3,80.4,0,0,12,��,2.8,28,,
2021/12/5,2:00:00,11,���쐼,1.7,-6.6,85.5,0,0,11,���쐼,2.6,7,,
2021/12/5,3:00:00,12,��,2.5,-8.8,89,0,0,14,�k��,3.6,43,,
2021/12/5,4:00:00,11,���쐼,3,-6.6,83.1,0,0,12,��,4,54,,
2021/12/5,5:00:00,15,�k�k��,1.2,-5.8,80.7,0,0,12,��,3.4,13,,
2021/12/5,6:00:00,13,���k��,0.9,-9,83.6,0,0,13,���k��,2.9,19,,
2021/12/5,7:00:00,12,��,1.7,-8.7,88,0,0.01,12,��,2.1,58,,
2021/12/5,8:00:00,13,���k��,1.4,-4.2,77.4,0,0.14,13,���k��,3.3,22,,
2021/12/5,9:00:00,12,��,0.7,-0.6,54.2,0,0.31,13,���k��,2.2,32,,
2021/12/5,10:00:00,11,���쐼,1.1,1.1,45.5,0,0.44,11,���쐼,3.1,58,,
2021/12/5,11:00:00,2,�k��,38.5,0,0.51,,,,,,,,
2021/12/5,12:00:00,13,���k��,0.9,2.6,33,0,0.52,13,���k��,3.1,29,,
2021/12/5,13:00:00,7,��쓌,1,2.9,36.1,0,0.48,5,���쓌,3.6,37,,
2021/12/5,14:00:00,5,���쓌,1.8,3.4,40.8,0,0.37,6,�쓌,3.6,47,,
2021/12/5,15:00:00,5,���쓌,1.2,2.3,49,0,0.21,5,���쓌,3.2,29,,
2021/12/5,16:00:00,16,�É�,0.1,-0.6,61.7,0,0.06,5,���쓌,2.9,3,,
2021/12/5,17:00:00,-3.4,#N/A,76.7,0,0,,,,,,,,
2021/12/5,18:00:00,14,�k��,0.9,-4.7,82.1,0,0,14,�k��,1.9,37,,
2021/12/5,19:00:00,14,�k��,1.7,-5.7,85.6,0,0,14,�k��,2.4,56,,
2021/12/5,20:00:00,13,���k��,2.4,-5.2,88.7,0,0,14,�k��,3.3,30,,
2021/12/5,21:00:00,13,���k��,2.9,-4.8,85.6,0,0,13,���k��,3.9,52,,
2021/12/5,22:00:00,13,���k��,2.4,-4.7,87.9,0,0,13,���k��,3.4,56,,
2021/12/5,23:00:00,13,���k��,2.4,-5.2,86.5,0,0,13,���k��,3.9,33,,
2021/12/5,0:00:00,13,���k��,1.5,-5.2,84.9,0,0,14,�k��,3.9,10,,
2021/12/6,1:00:00,13,���k��,2.9,-5.5,87.2,0,0,14,�k��,3.7,58,,
2021/12/6,2:00:00,13,���k��,2.1,-5,85.5,0,0,13,���k��,3.5,13,,
2021/12/6,3:00:00,13,���k��,1.7,-5.9,87.8,0,0,13,���k��,3.6,45,,
2021/12/6,4:00:00,13,���k��,2.1,-5.9,88.1,0,0,13,���k��,3.5,28,,
2021/12/6,5:00:00,14,�k��,2.2,-5.1,84.5,0,0,13,���k��,4,5,,
2021/12/6,6:00:00,13,���k��,2.5,-6.7,90.3,0,0,13,���k��,4.1,22,,
2021/12/6,7:00:00,13,���k��,2.7,-5.8,88.3,0,0.01,13,���k��,4.3,44,,
2021/12/6,8:00:00,13,���k��,2.2,-2.8,79.8,0,0.12,13,���k��,4.1,40,,
2021/12/6,9:00:00,14,�k��,1.9,0.3,69.6,0,0.28,14,�k��,3.3,5,,
2021/12/6,10:00:00,14,�k��,1.4,3.7,64.2,0,0.41,12,��,2.7,43,,
2021/12/6,11:00:00,4,��,0.4,5.8,58.7,0,0.49,3,���k��,1.9,59,,
2021/12/6,12:00:00,5,���쓌,2.1,6.6,57.7,0,0.51,5,���쓌,3.4,43,,
2021/12/6,13:00:00,6,�쓌,2.1,5.9,60,0,0.47,6,�쓌,3.4,13,,
2021/12/6,14:00:00,2,�k��,1.8,6.1,63.7,0,0.35,2,�k��,2.7,55,,
2021/12/6,15:00:00,2,�k��,1,5.3,70.9,0,0.17,3,���k��,2.9,0,,
2021/12/6,16:00:00,16,�É�,0,1.5,81.4,0,0.06,2,�k��,2.1,12,,
2021/12/6,17:00:00,-1.5,#N/A,95.4,0,0,,,,,,,,
2021/12/6,18:00:00,13,���k��,2.5,-2.1,96.8,0,0,12,��,3.5,47,,
2021/12/6,19:00:00,12,��,1.8,-2.5,93.8,0,0,12,��,3.7,56,,
2021/12/6,20:00:00,13,���k��,2.1,-2.7,96.6,0,0,13,���k��,3.7,4,,
2021/12/6,21:00:00,14,�k��,2.1,-2.8,96.1,0,0,13,���k��,3.9,42,,
2021/12/6,22:00:00,13,���k��,1.4,-3.3,96.5,0,0,14,�k��,3.8,6,,
2021/12/6,23:00:00,14,�k��,2.5,-1.1,90.4,0,0,13,���k��,7.5,44,,
2021/12/6,0:00:00,13,���k��,1.9,-4,95.6,0,0,12,��,4,9,,
2021/12/7,1:00:00,13,���k��,2.3,-3.9,94.8,0,0,13,���k��,5.1,26,,
2021/12/7,2:00:00,13,���k��,2.3,-3.8,96.5,0,0,13,���k��,4.6,8,,
2021/12/7,3:00:00,13,���k��,2.2,-4,96.9,0,0,14,�k��,3.8,35,,
2021/12/7,4:00:00,13,���k��,2,-3.6,96.4,0,0,13,���k��,3.9,35,,
2021/12/7,5:00:00,13,���k��,2.8,-2.9,98.1,0,0,14,�k��,4,57,,
2021/12/7,6:00:00,14,�k��,1.1,-4.7,97.3,0,0,13,���k��,3.7,0,,
2021/12/7,7:00:00,13,���k��,2.5,-4.1,97.4,0,0.01,12,��,3.6,59,,
2021/12/7,8:00:00,13,���k��,2.4,-0.6,93.8,0,0.1,14,�k��,4.2,25,,
2021/12/7,9:00:00,15,�k�k��,0.9,4,81.4,0,0.28,14,�k��,4.4,5,,
2021/12/7,10:00:00,5,���쓌,0.3,8.4,73.9,0,0.41,14,�k��,2,9,,
2021/12/7,11:00:00,3,���k��,1.7,10.9,62.7,0,0.49,3,���k��,2.9,48,,
2021/12/7,12:00:00,4,��,2.1,12,60.7,0,0.51,3,���k��,3.9,30,,
2021/12/7,13:00:00,6,�쓌,2.3,9.1,68,0,0.45,6,�쓌,3.9,17,,
2021/12/7,14:00:00,7,��쓌,1.6,8.4,74.5,0,0.3,7,��쓌,4.6,28,,
2021/12/7,15:00:00,7,��쓌,0.6,8.2,69.8,0,0.21,8,��,2.6,11,,
2021/12/7,16:00:00,16,�É�,0,3.6,79.4,0,0.04,9,��쐼,2.3,24,,
2021/12/7,17:00:00,13,���k��,1.4,-0.4,93.5,0,0,14,�k��,1.8,56,,
2021/12/7,18:00:00,2,�k��,2.2,2.2,91.1,0,0,2,�k��,6.7,45,,
2021/12/7,19:00:00,3,���k��,3.7,4.4,91.8,0,0,3,���k��,5.1,58,,
2021/12/7,20:00:00,2,�k��,2.9,5.2,83.4,0,0,2,�k��,6.5,44,,
2021/12/7,21:00:00,2,�k��,2,4.9,81.2,0,0,2,�k��,5.7,5,,
2021/12/7,22:00:00,1,�k�k��,2.5,4.6,79,0,0,1,�k�k��,3.5,42,,
2021/12/7,23:00:00,16,�k,1.4,4.3,77.5,0,0,2,�k��,4.5,6,,
2021/12/7,0:00:00,15,�k�k��,0.6,3.9,78,0,0,14,�k��,3.4,37,,
2021/12/8,1:00:00,14,�k��,2.1,3.1,78.1,0,0,14,�k��,3.5,46,,
2021/12/8,2:00:00,15,�k�k��,1,2.7,80.6,0,0,14,�k��,4.6,14,,
2021/12/8,3:00:00,14,�k��,0.8,1.4,88.3,0,0,16,�k,2.5,1,,
2021/12/8,4:00:00,13,���k��,0.8,0.9,88.4,0,0,16,�k,1.8,6,,
2021/12/8,5:00:00,13,���k��,1.8,1.4,88,0,0,13,���k��,2.5,58,,
2021/12/8,6:00:00,14,�k��,1.7,2.2,83.6,0,0,14,�k��,3.7,28,,
2021/12/8,7:00:00,13,���k��,1.2,1.9,85.6,0,0,15,�k�k��,3.1,0,,
2021/12/8,8:00:00,15,�k�k��,0.9,2.6,83.3,0,0.02,14,�k��,2.2,37,,
2021/12/8,9:00:00,14,�k��,1.7,3.1,81.1,0,0.05,14,�k��,2.8,21,,
2021/12/8,10:00:00,15,�k�k��,1.3,3.6,77.2,0,0.09,14,�k��,2.8,4,,
2021/12/8,11:00:00,1,�k�k��,2.3,4.5,71.3,0,0.12,1,�k�k��,3.4,54,,
2021/12/8,12:00:00,1,�k�k��,1.9,5.1,65.8,0,0.19,1,�k�k��,4.3,16,,
2021/12/8,13:00:00,16,�k,1.7,4.9,63.5,0,0.21,1,�k�k��,4.6,19,,
2021/12/8,14:00:00,14,�k��,2,4.7,66.3,0,0.15,1,�k�k��,4,13,,
2021/12/8,15:00:00,15,�k�k��,2.1,3.6,71.3,0,0.12,14,�k��,3.6,39,,
2021/12/8,16:00:00,14,�k��,1.7,2.1,79.2,0,0.03,15,�k�k��,3.5,49,,
2021/12/8,17:00:00,14,�k��,2.7,1.5,83.8,0,0,14,�k��,4.4,46,,
2021/12/8,18:00:00,14,�k��,2.2,0.9,84.9,0,0,14,�k��,4.2,15,,
2021/12/8,19:00:00,14,�k��,2.6,-0.1,89.5,0,0,14,�k��,3.6,57,,
2021/12/8,20:00:00,14,�k��,1.8,-0.5,89.8,0,0,14,�k��,4,6,,
2021/12/8,21:00:00,14,�k��,1.5,-3.4,96.6,0,0,13,���k��,2.8,1,,
2021/12/8,22:00:00,13,���k��,1.9,-3.1,96.5,0,0,14,�k��,2.7,27,,
2021/12/8,23:00:00,14,�k��,2.2,-2.7,94,0,0,14,�k��,3.1,19,,
2021/12/8,0:00:00,14,�k��,2,-2.9,91.6,0,0,13,���k��,3.1,12,,
2021/12/9,1:00:00,13,���k��,1.6,-3.8,92.6,0,0,13,���k��,3.1,38,,
2021/12/9,2:00:00,14,�k��,1.7,-2.4,89.7,0,0,14,�k��,3.1,51,,
2021/12/9,3:00:00,14,�k��,2.1,-3.5,87.2,0,0,14,�k��,3.3,32,,
2021/12/9,4:00:00,13,���k��,1.6,-4.6,93.6,0,0,13,���k��,3.8,38,,
2021/12/9,5:00:00,13,���k��,1.5,-5.5,95.5,0,0,13,���k��,2.5,7,,
2021/12/9,6:00:00,13,���k��,2,-5.6,95.3,0,0,14,�k��,2.8,59,,
2021/12/9,7:00:00,13,���k��,1.5,-6,95,0,0.01,14,�k��,3.5,10,,
2021/12/9,8:00:00,14,�k��,2,-3.4,92.6,0,0.06,14,�k��,3.3,52,,
2021/12/9,9:00:00,14,�k��,2.5,-0.3,84.5,0,0.24,14,�k��,3.8,59,,
2021/12/9,10:00:00,14,�k��,1.6,2.9,71.3,0,0.4,14,�k��,4.9,8,,
2021/12/9,11:00:00,8,��,0.4,4.5,62.7,0,0.5,14,�k��,2.5,0,,
2021/12/9,12:00:00,6,�쓌,2.2,4.8,60.7,0,0.52,6,�쓌,3.6,48,,
2021/12/9,13:00:00,5,���쓌,2.2,4.8,61.4,0,0.47,5,���쓌,3.5,44,,
2021/12/9,14:00:00,6,�쓌,1.8,4.7,64.9,0,0.37,5,���쓌,3.2,25,,
2021/12/9,15:00:00,7,��쓌,1.2,3.8,67.5,0,0.22,6,�쓌,3.2,22,,
2021/12/9,16:00:00,8,��,0.5,-0.3,88.1,0,0.06,6,�쓌,1.6,3,,
2021/12/9,17:00:00,13,���k��,0.8,-3,93,0,0,10,�쐼,2.8,18,,
2021/12/9,18:00:00,13,���k��,1.6,-3.7,96.7,0,0,13,���k��,2.1,57,,
2021/12/9,19:00:00,13,���k��,2.5,-3.6,96.8,0,0,14,�k��,3,59,,
2021/12/9,20:00:00,13,���k��,2.3,-3.8,96.7,0,0,14,�k��,3.5,2,,
2021/12/9,21:00:00,13,���k��,2,-4.9,97.9,0,0,13,���k��,3.2,40,,
2021/12/9,22:00:00,13,���k��,1.6,-5.4,98.1,0,0,12,��,3,4,,
2021/12/9,23:00:00,14,�k��,2.7,-4.9,99,0,0,14,�k��,3.4,49,,
2021/12/9,0:00:00,12,��,1.5,-5.8,98.1,0,0,14,�k��,3.1,3,,
2021/12/10,1:00:00,13,���k��,1.5,-5.9,98.9,0,0,12,��,2.5,0,,
2021/12/10,2:00:00,13,���k��,1,-6.2,98.4,0,0,13,���k��,2.1,25,,
2021/12/10,3:00:00,13,���k��,1.8,-5.5,98.9,0,0,13,���k��,3,44,,
2021/12/10,4:00:00,13,���k��,1.5,-4.9,96.8,0,0,13,���k��,3.1,19,,
2021/12/10,5:00:00,13,���k��,2.1,-3.1,96.7,0,0,13,���k��,2.7,58,,
2021/12/10,6:00:00,13,���k��,2.3,-2.1,96.1,0,0,13,���k��,3.3,58,,
2021/12/10,7:00:00,14,�k��,1.3,-1.3,95.2,0,0.01,14,�k��,3.8,3,,
2021/12/10,8:00:00,14,�k��,2.1,-0.5,94.3,0,0.04,14,�k��,3.7,25,,
2021/12/10,9:00:00,13,���k��,0.9,0.8,92,0,0.11,14,�k��,3.3,16,,
2021/12/10,10:00:00,13,���k��,1,2.8,88.2,0,0.18,5,���쓌,7.4,35,,
2021/12/10,11:00:00,4,��,79,0,0.24,,,,,,,,
2021/12/10,12:00:00,5,���쓌,1.8,4.9,76.5,0,0.36,6,�쓌,4.6,46,,
2021/12/10,13:00:00,5,���쓌,1.2,4.8,76.4,0,0.21,4,��,3.3,0,,
2021/12/10,14:00:00,6,�쓌,1.3,4.6,75.8,0,0.12,6,�쓌,2.9,49,,
2021/12/10,15:00:00,5,���쓌,1.5,4.4,76.7,0,0.07,8,��,2.5,24,,
2021/12/10,16:00:00,16,�É�,0,2.3,81.8,0,0.02,5,���쓌,3.2,6,,
2021/12/10,17:00:00,14,�k��,0.9,0.3,92.6,0,0,13,���k��,6.6,33,,
2021/12/10,18:00:00,14,�k��,1.7,1.7,89.3,0,0,14,�k��,2.3,55,,
2021/12/10,19:00:00,14,�k��,1.6,1.3,88.4,0,0,14,�k��,3,41,,
2021/12/10,20:00:00,2,�k��,0.6,1.4,89.3,0,0,14,�k��,2,35,,
2021/12/10,21:00:00,13,���k��,1.5,1.2,91.7,0,0,7,��쓌,2.5,24,,
2021/12/10,22:00:00,13,���k��,1.4,1.1,92.5,0,0,13,���k��,1.9,55,,
2021/12/10,23:00:00,14,�k��,2,1.8,88.6,0,0,14,�k��,3.1,59,,
2021/12/10,0:00:00,13,���k��,1.5,1.6,90.9,0,0,14,�k��,2.6,0,,
2021/12/11,1:00:00,16,�k,0.7,1.2,91.5,0,0,14,�k��,2.4,57,,
2021/12/11,2:00:00,16,�k,0.5,1.3,93.7,0,0,13,���k��,1.6,45,,
2021/12/11,3:00:00,14,�k��,0.5,1,92.9,0,0,1,�k�k��,2.9,7,,
2021/12/11,4:00:00,16,�É�,0,0.3,95.1,0,0,14,�k��,2.6,8,,
2021/12/11,5:00:00,14,�k��,1.9,0.8,93,0,0,14,�k��,3.2,5,,
2021/12/11,6:00:00,13,���k��,0.9,-0.5,97.3,0,0,14,�k��,2.7,15,,
2021/12/11,7:00:00,14,�k��,2,-0.4,96.1,0,0.01,14,�k��,4.1,56,,
2021/12/11,8:00:00,13,���k��,1.4,0.2,94.6,0,0.06,12,��,4,38,,
2021/12/11,9:00:00,14,�k��,2.9,1.7,85.3,0,0.15,15,�k�k��,4.9,49,,
2021/12/11,10:00:00,13,���k��,1.4,4.7,75.4,0,0.36,14,�k��,5.2,7,,
2021/12/11,11:00:00,13,���k��,1.6,5.6,71.9,0,0.39,12,��,3.4,27,,
2021/12/11,12:00:00,15,�k�k��,0.7,8.2,63.8,0,0.51,12,��,2.9,2,,
2021/12/11,13:00:00,7,��쓌,2,7.3,69.3,0,0.35,6,�쓌,3.4,52,,
2021/12/11,14:00:00,9,��쐼,2.5,6,78.9,0,0.2,8,��,4.6,30,,
2021/12/11,15:00:00,8,��,2.2,5.5,81.5,0,0.18,9,��쐼,4.1,5,,
2021/12/11,16:00:00,10,�쐼,0.7,4.3,88.7,0,0.05,9,��쐼,2.8,14,,
2021/12/11,17:00:00,16,�É�,0,0.3,95,0,0,14,�k��,2.4,48,,
2021/12/11,18:00:00,13,���k��,0.8,-2.5,99,0,0,15,�k�k��,3.4,43,,
2021/12/11,19:00:00,14,�k��,2.2,-2.6,100,0,0,14,�k��,2.6,58,,
2021/12/11,20:00:00,13,���k��,2.2,-2.8,100,0,0,13,���k��,2.9,58,,
2021/12/11,21:00:00,13,���k��,2,-1.7,100,0,0,14,�k��,3.5,45,,
2021/12/11,22:00:00,13,���k��,2.5,-2.7,98.9,0,0,13,���k��,3.3,59,,
2021/12/11,23:00:00,13,���k��,3.1,-2.2,100,0,0,13,���k��,4.1,0,,
2021/12/11,0:00:00,13,���k��,2.7,-2,99,0,0,13,���k��,4.3,34,,
2021/12/12,1:00:00,13,���k��,3.2,-2.4,97.8,0,0,13,���k��,4.4,54,,
2021/12/12,2:00:00,13,���k��,2.4,-1.7,96.2,0,0,14,�k��,4.2,16,,
2021/12/12,3:00:00,15,�k�k��,0.6,-3.1,95.6,0,0,13,���k��,4.1,12,,
2021/12/12,4:00:00,14,�k��,2.5,-3.8,96.2,0,0,14,�k��,2.8,58,,
2021/12/12,5:00:00,13,���k��,0.8,-5.3,97.7,0,0,13,���k��,4.4,4,,
2021/12/12,6:00:00,13,���k��,1.4,-5.1,100,0,0,13,���k��,2.8,42,,
2021/12/12,7:00:00,14,�k��,2.1,-4.5,99.5,0,0.01,11,���쐼,3.2,25,,
2021/12/12,8:00:00,13,���k��,2.6,-2.5,96.6,0,0.04,14,�k��,3.8,55,,
2021/12/12,9:00:00,13,���k��,2.7,-1.2,94.2,0,0.1,13,���k��,4.2,44,,
2021/12/12,10:00:00,13,���k��,1.3,2.6,88,0,0.23,13,���k��,3.3,0,,
2021/12/12,11:00:00,6,�쓌,1.4,6.3,73.4,0,0.4,12,��,2.8,26,,
2021/12/12,12:00:00,4,��,3,6.2,77.6,0,0.46,4,��,4.6,54,,
2021/12/12,13:00:00,5,���쓌,2.6,5.5,75.1,0,0.3,5,���쓌,4.3,15,,
2021/12/12,14:00:00,4,��,2.5,5.9,78.5,0,0.18,4,��,4.1,18,,
2021/12/12,15:00:00,2,�k��,2.7,5.2,81.6,0,0.1,2,�k��,4.8,27,,
2021/12/12,16:00:00,7,��쓌,3.2,6.6,80,0,0.01,7,��쓌,5.8,59,,
2021/12/12,17:00:00,8,��,3.3,6.1,86.8,0,0,7,��쓌,8.4,31,,
2021/12/12,18:00:00,7,��쓌,2.7,6.8,95.9,0,0,8,��,7,4,,
2021/12/12,19:00:00,9,��쐼,1.6,6.7,94.6,0,0,7,��쓌,5.7,3,,
2021/12/12,20:00:00,10,�쐼,1,3.5,97.7,0,0,14,�k��,3.2,18,,
2021/12/12,21:00:00,7,��쓌,0.7,6.1,88.3,0,0,9,��쐼,4.4,40,,
2021/12/12,22:00:00,15,�k�k��,6,4.2,82.8,0,0,14,�k��,11.1,58,,
2021/12/12,23:00:00,12,��,1.8,0.6,95.4,0,0,15,�k�k��,9.2,0,,
2021/12/12,0:00:00,9,��쐼,0.6,1.3,82.8,0,0,10,�쐼,7.3,45,,
2021/12/13,1:00:00,12,��,3.7,3.1,70.6,0,0,11,���쐼,9.5,59,,
2021/12/13,2:00:00,12,��,4.4,3.7,58,0,0,12,��,10.2,0,,
2021/12/13,3:00:00,14,�k��,3.4,2.7,68.3,0,0,13,���k��,10.9,31,,
2021/12/13,4:00:00,13,���k��,2.2,0.6,83.7,0,0,12,��,5.1,11,,
2021/12/13,5:00:00,13,���k��,4.3,1.4,63.3,0,0,13,���k��,9.6,48,,
2021/12/13,6:00:00,13,���k��,6.7,0.2,46.7,0,0,13,���k��,13.1,57,,
2021/12/13,7:00:00,13,���k��,5.6,-1.2,46.1,0,0.01,12,��,13.5,36,,
2021/12/13,8:00:00,12,��,3.8,-0.5,41.9,0,0.11,14,�k��,8.9,17,,
2021/12/13,9:00:00,12,��,7,-0.1,41,0,0.28,12,��,10.9,57,,
2021/12/13,10:00:00,12,��,8.4,0.2,46.1,0,0.41,11,���쐼,12.6,51,,
2021/12/13,11:00:00,11,���쐼,6.8,0.6,44.4,0,0.49,11,���쐼,12.7,59,,
2021/12/13,12:00:00,12,��,8.5,1.2,40.4,0,0.51,12,��,13.8,50,,
2021/12/13,13:00:00,13,���k��,8,1.5,37.4,0,0.47,13,���k��,16.6,3,,
2021/12/13,14:00:00,13,���k��,6.4,1.1,40.4,0,0.36,13,���k��,14.2,29,,
2021/12/13,15:00:00,13,���k��,8.9,0.5,43.8,0,0.22,13,���k��,15.5,16,,
2021/12/13,16:00:00,12,��,5.9,-0.4,46.8,0,0.05,13,���k��,12,3,,
2021/12/13,17:00:00,12,��,3.6,-1.1,49.5,0,0,13,���k��,10.5,12,,
2021/12/13,18:00:00,13,���k��,6,-0.2,46.7,0,0,13,���k��,11.6,39,,
2021/12/13,19:00:00,13,���k��,4.6,-0.5,48.1,0,0,13,���k��,10.5,25,,
2021/12/13,20:00:00,-2.2,#N/A,55.1,0,0,,,,,,,,
2021/12/13,21:00:00,11,���쐼,0.7,-2.3,58.4,0,0,12,��,3.5,15,,
2021/12/13,22:00:00,11,���쐼,1.7,-7.3,73.6,0,0,11,���쐼,3.5,34,,
2021/12/13,23:00:00,15,�k�k��,0.7,-6.9,76.6,0,0,14,�k��,3.6,0,,
2021/12/13,0:00:00,12,��,3.2,-6.2,77.5,0,0,11,���쐼,3.9,58,,
2021/12/14,1:00:00,13,���k��,1.9,-8.3,80.9,0,0,12,��,4.9,5,,
2021/12/14,2:00:00,12,��,2.1,-5.6,79.1,0,0,13,���k��,4.7,11,,
2021/12/14,3:00:00,12,��,1.4,-9.4,87.2,0,0,10,�쐼,3.6,34,,
2021/12/14,4:00:00,12,��,1.7,-9,92,0,0,13,���k��,3,55,,
2021/12/14,5:00:00,16,�k,0.3,-8.9,85.4,0,0,13,���k��,2.5,13,,
2021/12/14,6:00:00,13,���k��,1,-9.4,89.7,0,0,13,���k��,2.7,17,,
2021/12/14,7:00:00,13,���k��,1.5,-8.6,92.3,0,0.01,13,���k��,2.8,43,,
2021/12/14,8:00:00,13,���k��,2.5,-4.2,80.5,0,0.11,14,�k��,4.1,35,,
2021/12/14,9:00:00,13,���k��,2,-0.5,69.2,0,0.27,14,�k��,3.7,0,,
2021/12/14,10:00:00,14,�k��,1.4,2.4,52.8,0,0.41,14,�k��,2.7,31,,
2021/12/14,11:00:00,12,��,2.1,4.1,36.2,0,0.49,13,���k��,4,56,,
2021/12/14,12:00:00,4,��,1.5,5.6,43.1,0,0.51,4,��,3.3,46,,
2021/12/14,13:00:00,5,���쓌,2.3,5.1,40.2,0,0.47,5,���쓌,4.8,31,,
2021/12/14,14:00:00,4,��,2,5.6,45.1,0,0.37,5,���쓌,3.8,24,,
2021/12/14,15:00:00,4,��,1.6,4.2,54.3,0,0.22,4,��,3.1,43,,
2021/12/14,16:00:00,4,��,1,0.8,59,0,0.05,3,���k��,2.4,38,,
2021/12/14,17:00:00,1,�k�k��,3,-0.3,70.2,0,0,1,�k�k��,4.5,58,,
2021/12/14,18:00:00,3,���k��,2.1,-1.5,67.4,0,0,2,�k��,4.7,38,,
2021/12/14,19:00:00,16,�k,1.1,-6.7,85.9,0,0,14,�k��,2.7,44,,
2021/12/14,20:00:00,-3.7,#N/A,87.8,0,0,,,,,,,,
2021/12/14,21:00:00,1,�k�k��,2.1,-3.1,86.8,0,0,13,���k��,6.9,33,,
2021/12/14,22:00:00,15,�k�k��,0.9,-2.4,80.6,0,0,14,�k��,8.6,1,,
2021/12/14,23:00:00,13,���k��,1,-1.7,81.2,0,0,13,���k��,3.3,26,,
2021/12/14,0:00:00,12,��,2.4,-1.3,84.2,0,0,12,��,3.4,55,,
2021/12/15,1:00:00,10,�쐼,1.8,2.1,89.3,0,0,9,��쐼,3.7,57,,
2021/12/15,2:00:00,12,��,1,1.2,95.3,0,0,14,�k��,2.6,24,,
2021/12/15,3:00:00,11,���쐼,1.2,-1.5,92.3,0,0,12,��,4.5,12,,
2021/12/15,4:00:00,14,�k��,3.7,-0.7,94.1,0,0,14,�k��,6.1,55,,
2021/12/15,5:00:00,14,�k��,1.7,-2.1,90,0,0,14,�k��,5.7,2,,
2021/12/15,6:00:00,13,���k��,3.3,-0.9,86.4,0,0,14,�k��,6.5,52,,
2021/12/15,7:00:00,12,��,2,-3.5,91.8,0,0.01,15,�k�k��,4.7,5,,
2021/12/15,8:00:00,12,��,0.4,-0.8,89.2,0,0.1,12,��,3.4,0,,
2021/12/15,9:00:00,2.7,�k��,75.5,0,0.27,,,,,,,,
2021/12/15,10:00:00,5,���쓌,1.4,6.1,69.6,0,0.32,13,���k��,4.7,24,,
2021/12/15,11:00:00,4,��,0.9,7.2,69.8,0,0.32,7,��쓌,3.8,21,,
2021/12/15,12:00:00,12,��,1.7,10.2,47.5,0,0.46,7,��쓌,5.3,26,,
2021/12/15,13:00:00,12,��,7.2,8.8,48,0,0.27,13,���k��,11.5,41,,
2021/12/15,14:00:00,15,�k�k��,3.1,8.4,53.7,0,0.32,13,���k��,9.8,17,,
2021/12/15,15:00:00,15,�k�k��,3.3,6.7,60.4,0,0.25,15,�k�k��,6.5,58,,
2021/12/15,16:00:00,14,�k��,2.3,3.1,68.1,0,0.05,14,�k��,6.7,15,,
2021/12/15,17:00:00,14,�k��,2.8,2.6,68.3,0,0,14,�k��,5.5,42,,
2021/12/15,18:00:00,13,���k��,1.4,-1.2,73.2,0,0,15,�k�k��,5.6,13,,
2021/12/15,19:00:00,8,��,0.5,-3,86.2,0,0,14,�k��,2.6,22,,
2021/12/15,20:00:00,12,��,2,-5,88.6,0,0,12,��,2.7,57,,
2021/12/15,21:00:00,12,��,1.3,-5.1,87.3,0,0,12,��,2.8,1,,
2021/12/15,22:00:00,13,���k��,1.4,-6.3,94.3,0,0,12,��,2.7,26,,
2021/12/15,23:00:00,13,���k��,1.9,-6.5,93.4,0,0,14,�k��,4,43,,
2021/12/15,0:00:00,11,���쐼,0.9,-6.6,95,0,0,12,��,3.1,38,,
2021/12/16,1:00:00,13,���k��,2.1,-7.7,95.1,0,0,13,���k��,3.3,53,,
2021/12/16,2:00:00,13,���k��,2.2,-7.1,94.9,0,0,12,��,3.9,46,,
2021/12/16,3:00:00,15,�k�k��,0.5,-7.5,94,0,0,12,��,3.5,38,,
2021/12/16,4:00:00,13,���k��,2.2,-8.7,94.9,0,0,12,��,2.9,51,,
2021/12/16,5:00:00,13,���k��,2,-8.6,94.2,0,0,14,�k��,3.7,11,,
2021/12/16,6:00:00,13,���k��,2.4,-9.1,94.6,0,0,13,���k��,4.2,8,,
2021/12/16,7:00:00,13,���k��,2.1,-7.6,92.6,0,0.01,13,���k��,3.1,52,,
2021/12/16,8:00:00,12,��,2.1,-5.1,90.9,0,0.11,12,��,3.4,38,,
2021/12/16,9:00:00,13,���k��,1.3,-0.2,75.2,0,0.27,13,���k��,3.3,36,,
2021/12/16,10:00:00,13,���k��,0.7,4,55.4,0,0.39,13,���k��,2.2,3,,
2021/12/16,11:00:00,8,��,1.5,5.3,45.3,0,0.46,7,��쓌,3,36,,
2021/12/16,12:00:00,7,��쓌,2.2,5.5,49.5,0,0.45,6,�쓌,3.9,59,,
2021/12/16,13:00:00,6,�쓌,2.7,5.1,52.6,0,0.38,6,�쓌,4.8,45,,
2021/12/16,14:00:00,4,��,2.5,6.8,40.8,0,0.3,7,��쓌,4.1,19,,
2021/12/16,15:00:00,4,��,0.4,3.8,52.6,0,0.17,5,���쓌,3.6,10,,
2021/12/16,16:00:00,2,�k��,1.2,0.9,71.9,0,0.03,2,�k��,2.9,16,,
2021/12/16,17:00:00,12,��,0.8,-3.3,87.4,0,0,13,���k��,2.7,14,,
2021/12/16,18:00:00,13,���k��,1.2,-4.5,88,0,0,14,�k��,2.7,39,,
2021/12/16,19:00:00,14,�k��,1.2,-5.8,92.2,0,0,1,�k�k��,2.9,43,,
2021/12/16,20:00:00,13,���k��,1.5,-6.7,88.8,0,0,13,���k��,3.3,33,,
2021/12/16,21:00:00,12,��,1.7,-6.7,92.6,0,0,13,���k��,3.1,44,,
2021/12/16,22:00:00,14,�k��,2.1,-5.6,91.9,0,0,14,�k��,3.7,48,,
2021/12/16,23:00:00,13,���k��,1.8,-7.1,91.6,0,0,13,���k��,3.2,30,,